GW1093 Weather Reports


Display with metric or nautical units.
time (UTC)temp
F
wind
direction
speed
MPH
gust
MPH
rain 1hr
in
rain 24hr
in
rain mn
in
humidity
%
barometer
mb
20260509135017 57 281 0.0 3.0 0.00 0.00 0.00 82 1003.4
20260509134538 56 267 0.0 3.0 0.00 0.00 0.00 83 1003.4
20260509134011 56 290 0.0 2.0 0.00 0.00 0.00 83 1003.4
20260509133510 56 266 0.0 2.0 0.00 0.00 0.00 83 1003.5
20260509133034 56 281 1.0 2.0 0.00 0.00 0.00 83 1003.5
20260509132510 55 0 1.0 5.0 0.00 0.00 0.00 84 1003.8
20260509132010 55 277 1.0 5.0 0.00 0.00 0.00 84 1003.7
20260509131550 55 317 1.0 4.0 0.00 0.00 0.00 84 1003.7
20260509131012 55 290 1.0 4.0 0.00 0.00 0.00 84 1003.5
20260509130512 55 276 1.0 4.0 0.00 0.00 0.00 85 1003.5
20260509130043 54 276 1.0 4.0 0.00 0.00 0.00 86 1003.5
20260509125513 54 289 1.0 4.0 0.00 0.00 0.00 86 1003.5
20260509125017 54 306 1.0 3.0 0.00 0.00 0.00 86 1003.6
20260509124539 54 277 1.0 3.0 0.00 0.00 0.00 87 1003.6
20260509124011 54 289 0.0 5.0 0.00 0.00 0.00 87 1003.5
20260509123510 53 275 1.0 5.0 0.00 0.00 0.00 88 1003.4
20260509123033 53 296 1.0 4.0 0.00 0.00 0.00 88 1003.6
20260509122511 53 0 0.0 3.0 0.00 0.00 0.00 89 1003.4
20260509122010 53 295 0.0 3.0 0.00 0.00 0.00 89 1003.4
20260509121530 53 293 0.0 3.0 0.00 0.00 0.00 89 1003.5
20260509121011 52 288 0.0 3.0 0.00 0.00 0.00 90 1003.5
20260509120517 52 286 1.0 3.0 0.00 0.00 0.00 91 1003.4
20260509120034 52 293 0.0 1.0 0.00 0.00 0.00 91 1003.5
20260509115511 52 281 0.0 1.0 0.00 0.00 0.00 91 1003.4
20260509115016 52 0 0.0 1.0 0.00 0.00 0.00 91 1003.5
20260509114531 52 0 0.0 1.0 0.00 0.00 0.00 91 1003.3
20260509114014 52 0 0.0 1.0 0.00 0.00 0.00 91 1003.3
20260509113512 52 0 0.0 1.0 0.00 0.00 0.00 91 1003.2
20260509113031 52 0 0.0 1.0 0.00 0.00 0.00 91 1003.2
20260509112511 52 0 0.0 2.0 0.00 0.00 0.00 91 1003.2
20260509112012 52 0 1.0 2.0 0.00 0.00 0.00 91 1003.3
20260509111532 52 0 0.0 1.0 0.00 0.00 0.00 91 1002.8
20260509111011 52 0 0.0 1.0 0.00 0.00 0.00 91 1002.8
20260509110513 52 291 0.0 1.0 0.00 0.00 0.00 91 1002.9
20260509110029 52 0 0.0 1.0 0.00 0.00 0.00 91 1002.9
20260509105513 52 0 0.0 1.0 0.00 0.00 0.00 91 1002.9
20260509105017 52 0 0.0 1.0 0.00 0.00 0.00 91 1003.0
20260509104530 52 0 0.0 1.0 0.00 0.00 0.00 91 1002.9
20260509104012 52 0 0.0 1.0 0.00 0.00 0.00 91 1002.9
20260509103511 51 0 0.0 0.0 0.00 0.00 0.00 91 1002.8
20260509103032 51 0 0.0 1.0 0.00 0.00 0.00 91 1002.8
20260509102511 51 0 0.0 1.0 0.00 0.00 0.00 91 1002.8
20260509102012 51 0 0.0 1.0 0.00 0.00 0.00 91 1003.0
20260509101532 51 0 0.0 1.0 0.00 0.00 0.00 90 1003.0
20260509101013 51 0 0.0 1.0 0.00 0.00 0.00 90 1003.1
20260509100512 52 0 0.0 1.0 0.00 0.00 0.00 90 1003.1
20260509100035 52 0 0.0 1.0 0.00 0.00 0.00 90 1003.2
20260509095512 52 0 0.0 1.0 0.00 0.00 0.00 90 1003.0
20260509095012 52 0 0.0 1.0 0.00 0.00 0.00 90 1003.2
20260509094530 52 0 0.0 1.0 0.00 0.00 0.00 90 1003.2
20260509094011 52 0 0.0 1.0 0.00 0.00 0.00 90 1003.3
20260509093511 52 293 0.0 1.0 0.00 0.00 0.00 90 1003.4
20260509093030 52 0 0.0 1.0 0.00 0.00 0.00 90 1003.5
20260509092513 52 281 0.0 1.0 0.00 0.00 0.00 90 1003.4
20260509092011 52 0 0.0 1.0 0.00 0.00 0.00 90 1003.4
20260509091531 52 282 0.0 1.0 0.00 0.00 0.00 90 1003.5
20260509091012 52 0 0.0 1.0 0.00 0.00 0.00 90 1003.5
20260509090510 52 0 0.0 2.0 0.00 0.00 0.00 90 1003.6
20260509090035 52 281 0.0 2.0 0.00 0.00 0.00 90 1003.6
20260509085512 52 314 0.0 1.0 0.00 0.00 0.00 90 1003.7
20260509085010 52 275 0.0 1.0 0.00 0.00 0.00 89 1003.7
20260509084535 52 0 0.0 1.0 0.00 0.00 0.00 89 1003.7
20260509084014 52 0 0.0 1.0 0.00 0.00 0.00 89 1003.7
20260509083520 52 291 0.0 1.0 0.00 0.00 0.00 89 1003.7
20260509083031 52 0 0.0 1.0 0.00 0.00 0.00 89 1003.6
20260509082510 52 0 0.0 1.0 0.00 0.00 0.00 89 1003.7
20260509082011 52 281 0.0 1.0 0.00 0.00 0.00 88 1003.7
20260509081541 52 0 0.0 1.0 0.00 0.00 0.00 88 1003.7
20260509081017 52 288 0.0 1.0 0.00 0.00 0.00 88 1003.6
20260509080511 52 0 0.0 1.0 0.00 0.00 0.00 88 1003.6
20260509080032 52 287 0.0 1.0 0.00 0.00 0.00 88 1003.6
20260509075517 52 0 0.0 1.0 0.00 0.00 0.00 88 1003.7
20260509075011 52 0 0.0 1.0 0.00 0.00 0.00 87 1003.7
20260509074531 52 0 0.0 1.0 0.00 0.00 0.00 87 1003.7
20260509074010 52 295 0.0 1.0 0.00 0.00 0.00 87 1003.8
20260509073512 53 0 0.0 1.0 0.00 0.00 0.00 87 1003.7
20260509073028 53 0 0.0 1.0 0.00 0.00 0.00 87 1003.6
20260509072520 53 274 0.0 1.0 0.00 0.00 0.00 86 1003.7
20260509072018 53 275 0.0 1.0 0.00 0.00 0.00 86 1003.8
20260509071528 53 0 0.0 1.0 0.00 0.00 0.00 86 1003.9
20260509071011 53 0 0.0 1.0 0.00 0.00 0.00 86 1004.1
20260509070514 53 283 0.0 1.0 0.00 0.00 0.00 86 1004.4
20260509070028 53 0 0.0 1.0 0.00 0.00 0.00 85 1004.4
20260509065510 53 0 0.0 1.0 0.00 0.00 0.00 85 1004.3
20260509065016 53 0 0.0 1.0 0.00 0.00 0.00 85 1004.4
20260509064532 53 0 0.0 1.0 0.00 0.00 0.00 85 1004.4
20260509064014 53 0 0.0 1.0 0.00 0.00 0.00 85 1004.4
20260509063513 53 300 0.0 1.0 0.00 0.00 0.00 85 1004.4
20260509063031 53 0 0.0 1.0 0.00 0.00 0.00 85 1004.4
20260509062511 54 0 0.0 1.0 0.00 0.00 0.00 84 1004.6
20260509062013 54 0 0.0 1.0 0.00 0.00 0.00 84 1004.6
20260509061530 54 0 0.0 1.0 0.00 0.00 0.00 84 1004.7
20260509061013 54 0 0.0 1.0 0.00 0.00 0.00 84 1004.6
20260509060513 54 0 0.0 1.0 0.00 0.00 0.00 84 1004.7
20260509060028 54 294 0.0 1.0 0.00 0.00 0.00 84 1004.8
20260509055513 54 0 0.0 1.0 0.00 0.00 0.00 84 1004.8
20260509055009 54 300 0.0 1.0 0.00 0.00 0.00 84 1004.9
20260509054540 54 284 0.0 2.0 0.00 0.00 0.00 84 1005.0
20260509054013 55 0 0.0 2.0 0.00 0.00 0.00 84 1005.1
20260509053514 55 0 0.0 1.0 0.00 0.00 0.00 84 1005.0
20260509053106 55 0 0.0 2.0 0.00 0.00 0.00 83 1004.9
20260509052515 55 276 0.0 2.0 0.00 0.00 0.00 83 1004.9
20260509052014 55 0 0.0 2.0 0.00 0.00 0.00 83 1004.8
20260509051529 55 0 0.0 1.0 0.00 0.00 0.00 83 1004.9
20260509051012 55 0 0.0 1.0 0.00 0.00 0.00 82 1004.9
20260509050512 55 283 0.0 1.0 0.00 0.00 0.00 82 1004.9
20260509050040 55 0 0.0 1.0 0.00 0.00 0.00 82 1004.9
20260509045510 56 287 0.0 1.0 0.00 0.00 0.00 81 1004.8
20260509045016 56 282 0.0 2.0 0.00 0.00 0.00 81 1004.9
20260509044530 56 0 0.0 2.0 0.00 0.00 0.00 81 1004.8
20260509044015 56 0 0.0 1.0 0.00 0.00 0.00 80 1004.8
20260509043515 56 285 0.0 1.0 0.00 0.00 0.00 80 1005.0
20260509043030 56 0 0.0 1.0 0.00 0.00 0.00 79 1005.0
20260509042514 57 0 0.0 1.0 0.00 0.00 0.00 78 1005.1
20260509042013 57 276 0.0 1.0 0.00 0.00 0.00 78 1005.1
20260509041532 57 294 0.0 1.0 0.00 0.00 0.00 77 1005.1
20260509041014 57 0 0.0 3.0 0.00 0.00 0.00 77 1005.3
20260509040517 57 0 0.0 3.0 0.00 0.00 0.00 76 1005.3
20260509040029 57 288 0.0 3.0 0.00 0.00 0.00 75 1005.2
20260509035512 57 278 0.0 1.0 0.00 0.00 0.00 75 1005.2
20260509035014 57 0 0.0 1.0 0.00 0.00 0.00 74 1005.2
20260509034530 57 278 0.0 1.0 0.00 0.00 0.00 74 1005.2
20260509034014 57 0 0.0 0.0 0.00 0.00 0.00 73 1005.1
20260509033513 57 0 0.0 0.0 0.00 0.00 0.00 73 1005.2
20260509033032 58 0 0.0 0.0 0.00 0.00 0.00 72 1005.2
20260509032514 58 0 0.0 0.0 0.00 0.00 0.00 72 1005.2
20260509032013 58 0 0.0 0.0 0.00 0.00 0.00 72 1005.1
20260509031532 58 0 0.0 0.0 0.00 0.00 0.00 72 1005.3
20260509031017 58 0 0.0 0.0 0.00 0.00 0.00 72 1005.1
20260509030513 58 0 0.0 0.0 0.00 0.00 0.00 72 1005.3
20260509030034 58 0 0.0 0.0 0.00 0.00 0.00 72 1005.4
20260509025514 58 0 0.0 0.0 0.00 0.00 0.00 71 1005.3
20260509025014 58 0 0.0 0.0 0.00 0.00 0.00 71 1005.3
20260509024533 59 0 0.0 0.0 0.00 0.00 0.00 70 1005.3
20260509024017 59 0 0.0 0.0 0.00 0.00 0.00 69 1005.3
20260509023512 59 0 0.0 0.0 0.00 0.00 0.00 68 1005.4
20260509023043 59 0 0.0 0.0 0.00 0.00 0.00 66 1005.3
20260509022516 59 0 0.0 0.0 0.00 0.00 0.00 63 1005.3
20260509022015 59 0 0.0 0.0 0.00 0.00 0.00 62 1005.4
20260509021532 59 0 0.0 0.0 0.00 0.00 0.00 61 1005.4
20260509021012 59 0 0.0 0.0 0.00 0.00 0.00 61 1005.3
20260509020515 59 0 0.0 0.0 0.00 0.00 0.00 60 1005.1
20260509020030 60 0 0.0 0.0 0.00 0.00 0.00 60 1005.1
20260509015515 60 0 0.0 0.0 0.00 0.00 0.00 60 1005.0
20260509015014 61 0 0.0 0.0 0.00 0.00 0.00 59 1005.0
20260509014537 61 0 0.0 0.0 0.00 0.00 0.00 57 1005.0
20260509014013 61 0 0.0 0.0 0.00 0.00 0.00 57 1004.9
20260509013512 61 0 0.0 0.0 0.00 0.00 0.00 58 1005.0
20260509013030 62 0 0.0 1.0 0.00 0.00 0.00 56 1005.0
20260509012512 62 0 0.0 1.0 0.00 0.00 0.00 56 1005.0
20260509012016 62 0 0.0 0.0 0.00 0.00 0.00 56 1004.9
20260509011534 62 0 0.0 0.0 0.00 0.00 0.00 54 1004.9
20260509011013 62 284 0.0 0.0 0.00 0.00 0.00 55 1004.9
20260509010509 63 0 0.0 0.0 0.00 0.00 0.00 54 1004.9
20260509010030 63 0 0.0 1.0 0.00 0.00 0.00 54 1004.9
20260509005513 63 0 0.0 1.0 0.00 0.00 0.00 54 1004.9
20260509005015 63 0 0.0 1.0 0.00 0.00 0.00 53 1004.9
20260509004533 63 0 0.0 1.0 0.00 0.00 0.00 54 1004.9
20260509004013 63 0 0.0 0.0 0.00 0.00 0.00 56 1004.9
20260509003511 63 0 0.0 0.0 0.00 0.00 0.00 56 1004.9
20260509003044 64 0 0.0 0.0 0.00 0.00 0.00 55 1004.9
20260509002513 64 0 0.0 0.0 0.00 0.00 0.00 56 1005.0
20260509002012 64 0 0.0 0.0 0.00 0.00 0.00 55 1004.9
20260509001530 64 0 0.0 0.0 0.00 0.00 0.00 54 1004.9
20260509001013 64 0 0.0 0.0 0.00 0.00 0.00 54 1004.9
20260509000514 64 0 0.0 0.0 0.00 0.00 0.00 53 1004.9
20260509000029 65 0 0.0 0.0 0.00 0.00 0.00 53 1005.0
20260508235514 65 0 0.0 0.0 0.00 0.00 0.00 52 1005.0
20260508235010 65 0 0.0 1.0 0.00 0.00 0.00 51 1005.0
20260508234532 66 0 0.0 1.0 0.00 0.00 0.00 50 1005.0
20260508234013 66 0 0.0 1.0 0.00 0.00 0.00 50 1005.1
20260508233511 66 284 0.0 1.0 0.00 0.00 0.00 49 1005.1
20260508233028 67 284 0.0 1.0 0.00 0.00 0.00 48 1005.1
20260508232509 67 284 0.0 1.0 0.00 0.00 0.00 48 1005.1
20260508232011 68 288 0.0 1.0 0.00 0.00 0.00 47 1005.1
20260508231534 69 0 0.0 1.0 0.00 0.00 0.00 47 1005.1
20260508231013 68 283 0.0 3.0 0.00 0.00 0.00 48 1005.0
20260508230511 67 0 1.0 3.0 0.00 0.00 0.00 48 1005.1
20260508230033 68 280 1.0 3.0 0.00 0.00 0.00 48 1005.2
20260508225517 68 287 0.0 3.0 0.00 0.00 0.00 49 1005.1
20260508225012 67 0 0.0 3.0 0.00 0.00 0.00 49 1005.2
20260508224531 67 278 0.0 3.0 0.00 0.00 0.00 48 1005.2
20260508224013 68 283 0.0 3.0 0.00 0.00 0.00 48 1005.2
20260508223517 68 0 0.0 2.0 0.00 0.00 0.00 49 1005.4
20260508223031 68 272 0.0 2.0 0.00 0.00 0.00 49 1005.4
20260508222513 68 273 0.0 1.0 0.00 0.00 0.00 50 1005.4
20260508222013 68 272 0.0 1.0 0.00 0.00 0.00 49 1005.5
20260508221529 68 0 0.0 2.0 0.00 0.00 0.00 50 1005.4
20260508221013 68 276 0.0 2.0 0.00 0.00 0.00 49 1005.5
20260508220516 68 212 0.0 1.0 0.00 0.00 0.00 49 1005.5
20260508220028 67 118 0.0 1.0 0.00 0.00 0.00 50 1005.5
20260508215512 67 0 0.0 2.0 0.00 0.00 0.00 48 1005.5
20260508215011 68 0 1.0 2.0 0.00 0.00 0.00 46 1005.5
20260508214532 68 0 0.0 3.0 0.00 0.00 0.00 47 1005.7
20260508214013 68 290 0.0 3.0 0.00 0.00 0.00 46 1005.6
20260508213511 67 284 1.0 2.0 0.00 0.00 0.00 48 1005.6
20260508213029 67 275 0.0 1.0 0.00 0.00 0.00 48 1005.6
20260508212514 67 278 0.0 2.0 0.00 0.00 0.00 47 1005.6
20260508212013 67 0 0.0 2.0 0.00 0.00 0.00 44 1005.6
20260508211531 68 0 0.0 1.0 0.00 0.00 0.00 48 1005.7
20260508211016 67 0 0.0 2.0 0.00 0.00 0.00 50 1005.6
20260508210511 68 0 0.0 2.0 0.00 0.00 0.00 47 1005.7
20260508210033 68 286 0.0 2.0 0.00 0.00 0.00 49 1005.7
20260508205513 69 286 0.0 3.0 0.00 0.00 0.00 48 1005.6
20260508205015 69 165 0.0 3.0 0.00 0.00 0.00 47 1005.6
20260508204528 69 53 1.0 3.0 0.00 0.00 0.00 45 1005.7
20260508204014 69 0 0.0 1.0 0.00 0.00 0.00 47 1005.9
20260508203510 69 0 0.0 1.0 0.00 0.00 0.00 47 1005.9
20260508203037 69 334 0.0 2.0 0.00 0.00 0.00 47 1006.0
20260508202513 68 288 0.0 2.0 0.00 0.00 0.00 46 1006.1
20260508202013 68 293 0.0 2.0 0.00 0.00 0.00 49 1006.3
20260508201530 68 278 0.0 2.0 0.00 0.00 0.00 48 1006.4
20260508201018 68 278 0.0 1.0 0.00 0.00 0.00 47 1006.4
20260508200513 67 281 0.0 2.0 0.00 0.00 0.00 49 1006.5
20260508200034 67 281 0.0 2.0 0.00 0.00 0.00 43 1006.6
20260508195511 68 274 0.0 2.0 0.00 0.00 0.00 44 1006.7
20260508195011 68 270 0.0 2.0 0.00 0.00 0.00 43 1006.8
20260508194528 69 290 1.0 3.0 0.00 0.00 0.00 40 1006.8
20260508194012 68 284 1.0 3.0 0.00 0.00 0.00 42 1006.9
20260508193511 68 0 0.0 2.0 0.00 0.00 0.00 43 1007.0
20260508193029 68 279 1.0 2.0 0.00 0.00 0.00 44 1007.0
20260508192513 68 285 0.0 2.0 0.00 0.00 0.00 45 1007.0
20260508192013 67 0 1.0 2.0 0.00 0.00 0.00 48 1007.1
20260508191534 67 0 0.0 1.0 0.00 0.00 0.00 48 1007.0
20260508191012 66 0 0.0 1.0 0.00 0.00 0.00 50 1007.1
20260508190513 67 0 0.0 1.0 0.00 0.00 0.00 50 1007.3
20260508190041 67 0 0.0 1.0 0.00 0.00 0.00 50 1007.4
20260508185513 67 271 0.0 1.0 0.00 0.00 0.00 50 1007.4
20260508185012 67 0 0.0 1.0 0.00 0.00 0.00 52 1007.5
20260508184535 66 0 0.0 0.0 0.00 0.00 0.00 52 1007.4
20260508184013 67 0 0.0 0.0 0.00 0.00 0.00 53 1007.5
20260508183511 67 0 0.0 1.0 0.00 0.00 0.00 52 1007.5
20260508183031 67 0 0.0 2.0 0.00 0.00 0.00 52 1007.5
20260508182513 68 279 1.0 2.0 0.00 0.00 0.00 50 1007.7
20260508182012 68 0 0.0 2.0 0.00 0.00 0.00 53 1007.7
20260508181528 67 44 0.0 2.0 0.00 0.00 0.00 55 1007.7
20260508181018 66 74 0.0 1.0 0.00 0.00 0.00 55 1007.7
20260508180512 66 277 0.0 2.0 0.00 0.00 0.00 55 1007.9
20260508180030 66 0 0.0 2.0 0.00 0.00 0.00 59 1007.9
20260508175516 65 0 0.0 1.0 0.00 0.00 0.00 59 1008.0
20260508175014 65 0 0.0 1.0 0.00 0.00 0.00 58 1008.0
20260508174548 65 0 0.0 1.0 0.00 0.00 0.00 60 1008.2
20260508174013 65 0 0.0 1.0 0.00 0.00 0.00 60 1008.2
20260508173513 65 0 0.0 1.0 0.00 0.00 0.00 61 1008.2
20260508173032 65 0 0.0 2.0 0.00 0.00 0.00 59 1008.3
20260508172516 66 0 0.0 2.0 0.00 0.00 0.00 59 1008.4
20260508172011 66 0 0.0 2.0 0.00 0.00 0.00 59 1008.7
20260508171533 65 39 0.0 2.0 0.00 0.00 0.00 60 1008.6
20260508171022 65 0 0.0 1.0 0.00 0.00 0.00 61 1008.6
20260508170513 65 0 0.0 1.0 0.00 0.00 0.00 59 1008.6
20260508170034 65 0 0.0 1.0 0.00 0.00 0.00 59 1008.8
20260508165513 65 0 0.0 1.0 0.00 0.00 0.00 62 1008.9
20260508165014 64 0 0.0 1.0 0.00 0.00 0.00 62 1009.0
20260508164528 64 293 0.0 1.0 0.00 0.00 0.00 62 1009.0
20260508164012 64 0 0.0 1.0 0.00 0.00 0.00 62 1009.0
20260508163511 63 0 0.0 1.0 0.00 0.00 0.00 63 1009.1
20260508163046 64 0 0.0 1.0 0.00 0.00 0.00 62 1009.3
20260508162514 63 0 0.0 3.0 0.00 0.00 0.00 62 1009.5
20260508162013 64 0 0.0 3.0 0.00 0.00 0.00 62 1009.5
20260508161529 64 46 0.0 3.0 0.00 0.00 0.00 62 1009.6
20260508161012 64 46 0.0 2.0 0.00 0.00 0.00 62 1009.5
20260508160510 63 5 0.0 1.0 0.00 0.00 0.00 65 1009.5
20260508160030 62 5 0.0 1.0 0.00 0.00 0.00 67 1009.5
20260508155513 61 0 0.0 2.0 0.00 0.00 0.00 67 1009.6
20260508155011 61 0 0.0 2.0 0.00 0.00 0.00 66 1009.4
20260508154530 61 49 0.0 2.0 0.00 0.00 0.00 69 1009.6
20260508154015 60 0 0.0 2.0 0.00 0.00 0.00 71 1009.5
20260508153513 59 0 0.0 2.0 0.00 0.00 0.00 70 1009.6
20260508153033 60 282 0.0 2.0 0.00 0.00 0.00 71 1009.8
20260508152509 60 0 0.0 1.0 0.00 0.00 0.00 70 1009.8
20260508152010 60 0 0.0 1.0 0.00 0.00 0.00 71 1009.7
20260508151535 59 0 0.0 1.0 0.00 0.00 0.00 70 1009.8
20260508151018 59 0 0.0 1.0 0.00 0.00 0.00 72 1009.9
20260508150515 58 0 0.0 1.0 0.00 0.00 0.00 72 1009.8
20260508150032 58 0 0.0 1.0 0.00 0.00 0.00 72 1009.8
20260508145511 57 6 0.0 1.0 0.00 0.00 0.00 72 1010.0
20260508145013 57 6 0.0 1.0 0.00 0.00 0.00 73 1009.9
20260508144534 56 331 0.0 1.0 0.00 0.00 0.00 74 1010.1
20260508144013 55 0 0.0 1.0 0.00 0.00 0.00 75 1010.1
20260508143513 55 294 0.0 1.0 0.00 0.00 0.00 75 1010.0
20260508143029 55 0 0.0 1.0 0.00 0.00 0.00 76 1010.1
20260508142512 54 0 0.0 1.0 0.00 0.00 0.00 76 1010.1
20260508142011 54 0 0.0 1.0 0.00 0.00 0.00 77 1010.2
20260508141532 53 0 0.0 1.0 0.00 0.00 0.00 77 1010.1
20260508141010 53 0 0.0 1.0 0.00 0.00 0.00 78 1010.2
20260508140516 53 0 0.0 1.0 0.00 0.00 0.00 79 1010.2
20260508140032 53 0 0.0 1.0 0.00 0.00 0.00 78 1010.2
20260508135515 52 0 0.0 1.0 0.00 0.00 0.00 79 1010.2